Location: Unspecified
(12.6670°N, 0.0000°E)
Time: 09:48:15
(UTC+00:00)

ISS - Visible Passes

Search period start: 24 April 2019 00:00
Search period end: 04 May 2019 00:00
Orbit: 408 x 410 km, 51.6° (Epoch: 24 April)

Date Brightness Start Highest point End Pass type
(mag) Time Alt. Az. Time Alt. Az. Time Alt. Az.
24 Apr -2.5 05:04:36 14° W 05:06:39 25° NW 05:09:27 10° N visible
25 Apr -3.3 04:16:26 52° N 04:16:26 52° N 04:19:07 10° NNE visible
26 Apr -0.2 03:28:09 10° NE 03:28:09 10° NE 03:28:13 10° NE visible
27 Apr -1.1 04:12:31 12° NNW 04:12:31 12° NNW 04:12:55 10° N visible
